�N����,����,�~����,�C��,���x,�C��,����,���ϕ���,�ő�u�ԕ���,�ő厞����,���˗�,�I�_���x,�n�����x,�ő啗���N��,DTYPE
"18/10/08","00:10",0.0,18.6,91.4,1008.6,319.3,2.1,4.1,327.5,0.00,17.2,21.5,"00:03:12",1
"18/10/08","00:20",0.0,18.6,91.2,1008.8,333.5,2.0,4.1,342.8,0.00,17.2,21.3,"00:13:20",1
"18/10/08","00:30",0.0,18.3,91.1,1009.0,327.4,1.6,2.5,345.9,0.00,16.9,21.5,"00:21:20",1
"18/10/08","00:40",0.0,18.1,91.3,1008.8,326.0,1.7,2.6,316.9,0.00,16.7,21.3,"00:33:36",1
"18/10/08","00:50",0.0,17.8,91.6,1009.0,329.1,1.6,2.5,336.1,0.00,16.5,21.4,"00:44:32",1
"18/10/08","01:00",0.0,18.1,92.3,1008.8,316.6,1.8,3.2,319.5,0.00,16.9,21.3,"00:57:04",1
"18/10/08","01:10",0.0,18.1,92.1,1008.8,311.7,1.8,2.8,322.7,0.00,16.8,21.2,"01:03:12",1
"18/10/08","01:20",0.0,18.2,92.3,1009.0,318.7,2.1,3.4,323.4,0.00,17.0,21.2,"01:12:24",1
"18/10/08","01:30",0.0,18.2,92.0,1008.6,320.9,2.0,3.6,305.4,0.00,16.9,21.2,"01:23:36",1
"18/10/08","01:40",0.0,18.2,91.8,1008.8,324.3,1.5,3.4,336.3,0.00,16.9,21.1,"01:35:52",1
"18/10/08","01:50",0.0,18.0,91.6,1008.6,320.8,1.2,2.6,340.5,0.00,16.7,21.1,"01:44:32",1
"18/10/08","02:00",0.0,17.8,92.2,1008.8,300.1,1.0,1.7,325.0,0.00,16.6,21.2,"01:52:00",1
"18/10/08","02:10",0.0,17.6,92.4,1009.0,293.4,0.7,1.6,314.8,0.00,16.4,21.1,"02:09:04",1
"18/10/08","02:20",0.0,17.4,92.6,1008.8,291.9,0.7,1.8,328.2,0.00,16.2,20.9,"02:15:52",1
"18/10/08","02:30",0.0,17.4,92.8,1009.0,288.4,1.0,1.8,315.9,0.00,16.3,21.1,"02:22:40",1
"18/10/08","02:40",0.0,17.5,92.8,1009.0,294.0,1.2,2.6,316.0,0.00,16.4,20.7,"02:39:52",1
"18/10/08","02:50",0.0,17.9,92.6,1009.0,320.0,2.3,4.0,324.9,0.00,16.7,20.8,"02:46:32",1
"18/10/08","03:00",0.0,17.8,92.3,1009.3,323.6,2.0,3.1,327.4,0.00,16.6,20.7,"02:50:08",1
"18/10/08","03:10",0.0,17.6,92.1,1009.0,307.0,1.7,2.7,314.1,0.00,16.3,20.8,"03:02:08",1
"18/10/08","03:20",0.0,17.6,92.4,1009.0,308.2,1.7,2.7,321.9,0.00,16.4,20.7,"03:17:36",1
"18/10/08","03:30",0.0,17.6,92.5,1009.7,313.4,1.6,2.5,311.3,0.00,16.4,20.7,"03:22:24",1
"18/10/08","03:40",0.0,17.5,92.9,1009.7,325.4,1.5,2.7,327.9,0.00,16.4,20.7,"03:39:52",1
"18/10/08","03:50",0.0,17.5,92.9,1009.5,324.1,1.8,2.7,317.4,0.00,16.4,20.8,"03:40:48",1
"18/10/08","04:00",0.0,17.5,93.2,1009.0,325.1,1.6,2.2,324.6,0.00,16.4,20.8,"03:51:28",1
"18/10/08","04:10",0.0,17.7,92.9,1009.0,319.8,2.1,4.1,326.9,0.00,16.6,20.7,"04:07:44",1
"18/10/08","04:20",0.0,17.8,92.9,1009.3,319.9,1.8,3.5,324.4,0.00,16.7,20.7,"04:15:36",1
"18/10/08","04:30",0.0,17.9,92.7,1009.5,327.2,2.0,3.4,343.7,0.00,16.7,20.6,"04:20:48",1
"18/10/08","04:40",0.0,17.8,92.6,1009.3,328.3,1.6,2.9,346.1,0.00,16.6,20.6,"04:39:04",1
"18/10/08","04:50",0.0,17.6,92.5,1009.5,336.4,1.8,3.2,342.2,0.00,16.4,20.7,"04:44:48",1
"18/10/08","05:00",0.0,17.5,92.7,1009.7,326.9,2.0,3.1,331.8,0.00,16.3,20.7,"04:54:24",1
"18/10/08","05:10",0.0,17.6,92.9,1009.7,330.2,2.1,3.2,332.4,0.00,16.5,20.8,"05:01:36",1
"18/10/08","05:20",0.0,17.6,92.8,1009.7,333.0,1.8,3.1,326.6,0.00,16.5,20.6,"05:12:56",1
"18/10/08","05:30",0.0,17.6,92.8,1009.7,337.3,1.3,2.5,331.9,0.00,16.5,20.6,"05:21:04",1
"18/10/08","05:40",0.0,17.7,92.8,1009.5,328.2,1.6,2.7,338.6,0.00,16.6,20.3,"05:39:20",1
"18/10/08","05:50",0.0,17.7,92.8,1009.7,324.2,1.7,2.8,309.7,0.00,16.6,20.5,"05:45:36",1
"18/10/08","06:00",0.0,17.8,92.7,1010.2,346.6,0.7,1.7,330.6,0.00,16.6,20.7,"05:50:08",1
"18/10/08","06:10",0.0,17.7,92.3,1010.2,320.5,1.0,1.6,315.5,0.00,16.5,20.6,"06:08:00",1
"18/10/08","06:20",0.0,17.6,92.6,1009.7,323.9,1.2,2.1,326.0,0.00,16.4,20.4,"06:13:52",1
"18/10/08","06:30",0.0,17.5,92.8,1010.2,321.1,1.5,2.2,340.4,0.00,16.4,20.7,"06:28:00",1
"18/10/08","06:40",0.0,17.7,92.8,1010.0,329.4,2.2,3.9,335.0,0.00,16.6,20.5,"06:39:36",1
"18/10/08","06:50",0.0,18.0,92.2,1010.0,335.0,1.7,2.6,342.9,0.00,16.8,20.5,"06:49:04",1
"18/10/08","07:00",0.0,18.2,92.0,1010.0,340.1,1.6,3.2,350.2,0.00,16.9,20.6,"06:52:48",1
"18/10/08","07:10",0.0,18.8,90.6,1010.2,332.3,2.0,3.7,331.7,0.01,17.3,20.7,"07:06:32",1
"18/10/08","07:20",0.0,19.3,88.4,1010.7,332.7,1.8,2.9,318.8,0.03,17.4,20.4,"07:18:32",1
"18/10/08","07:30",0.0,19.8,86.7,1010.4,335.2,2.1,3.3,351.2,0.04,17.6,20.4,"07:25:12",1
"18/10/08","07:40",0.0,20.4,84.8,1010.4,337.9,1.7,3.1,330.9,0.06,17.8,20.7,"07:30:16",1
"18/10/08","07:50",0.0,20.8,83.0,1010.4,337.1,1.3,2.9,343.4,0.08,17.8,20.7,"07:44:00",1
"18/10/08","08:00",0.0,21.0,81.9,1010.7,337.3,1.7,3.1,335.1,0.11,17.8,20.7,"07:55:44",1
"18/10/08","08:10",0.0,21.6,79.3,1010.7,325.4,1.3,2.7,347.6,0.13,17.9,20.7,"08:01:04",1
"18/10/08","08:20",0.0,21.8,79.5,1010.4,296.1,1.0,2.0,332.6,0.16,18.1,20.8,"08:13:12",1
"18/10/08","08:30",0.0,21.9,79.0,1010.4,286.5,0.8,1.9,317.5,0.18,18.1,20.9,"08:26:48",1
"18/10/08","08:40",0.0,21.9,78.0,1010.2,282.5,1.3,3.4,312.0,0.21,17.9,20.9,"08:37:20",1
"18/10/08","08:50",0.0,22.5,75.5,1009.5,288.8,0.8,3.2,342.2,0.24,18.0,21.0,"08:45:52",1
"18/10/08","09:00",0.0,22.8,72.4,1010.0,292.3,1.0,2.4,352.6,0.26,17.6,21.0,"08:58:16",1
"18/10/08","09:10",0.0,23.3,71.7,1009.7,299.7,1.2,2.9,339.5,0.29,17.9,21.1,"09:08:48",1
"18/10/08","09:20",0.0,23.5,69.4,1009.5,355.9,1.7,3.4,334.8,0.31,17.6,21.4,"09:17:52",1
"18/10/08","09:30",0.0,23.6,69.7,1009.5,347.4,2.2,5.0,343.2,0.31,17.8,21.4,"09:27:28",1
"18/10/08","09:40",0.0,23.4,68.7,1009.3,352.2,1.8,3.9,339.5,0.23,17.4,21.4,"09:30:16",1
"18/10/08","09:50",0.0,23.3,68.6,1009.3,344.8,2.1,4.2,355.9,0.29,17.2,21.6,"09:42:56",1
"18/10/08","10:00",0.0,24.3,60.0,1009.3,5.6,1.3,3.5,347.4,0.41,16.1,21.8,"09:53:28",1
"18/10/08","10:10",0.0,24.6,61.4,1009.3,17.3,1.2,2.9,349.6,0.35,16.7,21.9,"10:04:00",1
"18/10/08","10:20",0.0,24.5,59.2,1008.8,19.8,1.3,3.1,54.2,0.43,16.1,22.0,"10:16:16",1
"18/10/08","10:30",0.0,25.0,60.4,1008.1,347.2,1.6,4.3,354.2,0.45,16.8,22.2,"10:23:52",1
"18/10/08","10:40",0.0,25.1,57.5,1008.1,358.3,1.7,4.8,354.8,0.46,16.2,22.1,"10:36:16",1
"18/10/08","10:50",0.0,25.2,55.8,1008.1,358.2,1.7,4.0,19.3,0.47,15.8,22.3,"10:44:24",1
"18/10/08","11:00",0.0,25.5,54.7,1008.3,32.5,1.6,5.2,346.0,0.48,15.8,22.5,"10:53:20",1
"18/10/08","11:10",0.0,25.3,53.5,1007.8,13.5,1.8,4.4,32.1,0.49,15.2,22.6,"11:01:52",1
"18/10/08","11:20",0.0,26.1,55.3,1008.6,55.9,1.3,3.9,0.6,0.50,16.5,22.7,"11:11:28",1
"18/10/08","11:30",0.0,25.6,55.5,1008.3,71.0,1.2,2.4,67.4,0.50,16.1,22.9,"11:28:24",1
"18/10/08","11:40",0.0,25.9,55.1,1007.8,30.3,1.6,3.6,52.5,0.51,16.2,23.2,"11:35:12",1
"18/10/08","11:50",0.0,25.8,54.7,1008.1,25.4,1.5,3.6,343.9,0.51,16.0,23.3,"11:48:16",1
"18/10/08","12:00",0.0,25.7,54.5,1007.8,354.6,1.7,4.0,299.9,0.51,15.9,23.4,"11:58:32",1
"18/10/08","12:10",0.0,26.4,53.7,1007.8,22.6,1.3,3.3,17.1,0.51,16.3,23.4,"12:06:40",1
"18/10/08","12:20",0.0,26.6,53.7,1008.1,350.4,1.5,3.6,337.8,0.51,16.5,23.6,"12:16:08",1
"18/10/08","12:30",0.0,26.3,51.2,1007.8,27.7,1.6,3.6,3.1,0.51,15.5,23.8,"12:20:40",1
"18/10/08","12:40",0.0,26.3,55.1,1007.8,344.4,1.8,4.3,326.7,0.51,16.6,23.9,"12:38:40",1
"18/10/08","12:50",0.0,26.3,54.3,1007.8,331.5,2.5,5.5,327.5,0.50,16.4,23.9,"12:47:36",1
"18/10/08","13:00",0.0,26.6,50.9,1007.4,350.3,1.8,3.7,320.2,0.50,15.6,24.2,"12:55:04",1
"18/10/08","13:10",0.0,26.4,48.8,1007.4,352.6,1.8,4.1,27.9,0.50,14.8,24.3,"13:06:24",1
"18/10/08","13:20",0.0,26.6,50.9,1007.4,339.5,2.1,4.3,326.4,0.48,15.6,24.3,"13:15:52",1
"18/10/08","13:30",0.0,26.7,46.6,1007.4,348.6,2.1,4.2,345.1,0.47,14.4,24.5,"13:23:12",1
"18/10/08","13:40",0.0,27.2,47.7,1007.6,36.7,1.3,4.1,355.4,0.47,15.2,24.7,"13:33:52",1
"18/10/08","13:50",0.0,26.7,49.3,1007.6,338.0,2.3,5.1,347.3,0.45,15.2,24.5,"13:41:20",1
"18/10/08","14:00",0.0,26.8,50.6,1007.4,338.3,2.0,5.1,346.4,0.43,15.7,24.5,"13:52:48",1
"18/10/08","14:10",0.0,26.7,50.6,1007.4,7.1,2.0,4.5,353.4,0.42,15.6,24.7,"14:08:32",1
"18/10/08","14:20",0.0,26.9,49.6,1006.7,340.4,2.1,4.0,315.8,0.38,15.5,24.7,"14:12:40",1
"18/10/08","14:30",0.0,27.0,47.8,1006.9,5.9,1.6,3.9,353.5,0.35,15.0,24.7,"14:25:28",1
"18/10/08","14:40",0.0,27.0,46.6,1007.1,18.7,1.5,3.5,27.3,0.35,14.6,24.8,"14:35:44",1
"18/10/08","14:50",0.0,26.7,49.2,1007.1,350.3,1.5,3.2,309.3,0.34,15.2,24.6,"14:42:40",1
"18/10/08","15:00",0.0,26.6,48.6,1006.9,343.6,1.8,4.3,341.7,0.31,14.9,24.6,"14:55:12",1
"18/10/08","15:10",0.0,26.8,50.5,1006.7,344.1,1.8,4.4,336.0,0.30,15.7,24.7,"15:05:28",1
"18/10/08","15:20",0.0,26.5,50.3,1006.4,338.9,1.8,4.1,351.4,0.27,15.4,24.7,"15:10:16",1
"18/10/08","15:30",0.0,26.7,49.0,1006.4,344.8,1.2,3.1,19.1,0.24,15.1,24.7,"15:25:20",1
"18/10/08","15:40",0.0,26.5,49.5,1006.4,345.9,1.3,3.3,324.3,0.21,15.1,24.6,"15:31:20",1
"18/10/08","15:50",0.0,26.2,50.5,1006.4,339.7,2.1,3.7,340.6,0.19,15.2,24.7,"15:43:36",1
"18/10/08","16:00",0.0,25.9,47.4,1006.0,338.7,2.1,5.0,342.5,0.17,13.9,24.6,"15:57:20",1
"18/10/08","16:10",0.0,26.5,44.7,1006.0,347.7,1.8,4.0,347.1,0.15,13.5,24.4,"16:01:36",1
"18/10/08","16:20",0.0,26.3,45.1,1006.4,353.5,1.7,3.7,346.6,0.12,13.5,24.4,"16:17:20",1
"18/10/08","16:30",0.0,25.7,48.4,1006.7,346.8,1.6,3.2,350.3,0.06,14.0,24.3,"16:28:24",1
"18/10/08","16:40",0.0,25.5,50.9,1006.4,337.2,1.8,3.4,353.8,0.08,14.6,24.2,"16:35:20",1
"18/10/08","16:50",0.0,25.2,52.2,1006.9,322.0,2.0,3.7,337.8,0.05,14.8,24.1,"16:45:20",1
"18/10/08","17:00",0.0,24.6,55.6,1006.9,316.8,1.6,3.1,334.5,0.02,15.2,24.0,"16:57:44",1
"18/10/08","17:10",0.0,24.0,58.1,1006.9,313.2,1.3,2.2,332.8,0.01,15.3,24.0,"17:05:28",1
"18/10/08","17:20",0.0,23.3,60.9,1006.9,320.4,1.6,3.3,334.2,0.00,15.4,23.8,"17:16:08",1
"18/10/08","17:30",0.0,22.7,62.8,1007.4,332.7,2.1,3.2,336.2,0.00,15.3,23.6,"17:20:02",1
"18/10/08","17:40",0.0,22.3,64.8,1007.6,330.9,2.0,2.8,326.5,0.00,15.4,23.6,"17:36:08",1
"18/10/08","17:50",0.0,22.1,66.0,1007.6,327.8,2.5,4.7,333.2,0.00,15.5,23.7,"17:49:12",1
"18/10/08","18:00",0.0,22.2,66.1,1007.8,322.3,2.7,4.5,335.4,0.00,15.6,23.4,"17:55:52",1
"18/10/08","18:10",0.0,22.3,65.6,1007.8,323.1,3.1,5.0,344.7,0.00,15.6,23.5,"18:05:28",1
"18/10/08","18:20",0.0,22.0,66.4,1007.8,326.3,2.7,5.2,339.2,0.00,15.5,23.2,"18:11:28",1
"18/10/08","18:30",0.0,21.8,67.4,1008.1,332.1,2.6,4.7,330.8,0.00,15.5,23.3,"18:24:08",1
"18/10/08","18:40",0.0,21.6,68.2,1008.6,329.0,2.0,3.7,325.0,0.00,15.5,23.2,"18:37:28",1
"18/10/08","18:50",0.0,21.3,69.3,1008.6,326.9,1.6,3.7,337.0,0.00,15.5,23.0,"18:42:40",1
"18/10/08","19:00",0.0,21.1,70.1,1008.6,327.0,1.2,2.8,330.5,0.00,15.5,23.1,"18:55:36",1
"18/10/08","19:10",0.0,20.9,70.8,1008.3,328.7,1.5,3.6,341.1,0.00,15.4,23.0,"19:01:20",1
"18/10/08","19:20",0.0,20.4,72.4,1008.8,295.0,0.5,1.4,26.7,0.00,15.3,22.7,"19:13:36",1
"18/10/08","19:30",0.0,19.8,74.9,1009.0,286.2,0.6,2.0,322.6,0.00,15.3,22.8,"19:20:02",1
"18/10/08","19:40",0.0,19.8,74.8,1009.5,309.6,1.2,2.9,344.0,0.00,15.2,22.8,"19:39:04",1
"18/10/08","19:50",0.0,20.1,73.3,1009.5,334.4,1.6,2.9,340.4,0.00,15.2,22.2,"19:48:08",1
"18/10/08","20:00",0.0,20.0,72.6,1009.5,324.2,1.5,4.4,337.9,0.00,15.0,22.3,"19:53:04",1
"18/10/08","20:10",0.0,19.2,75.5,1009.3,282.2,0.7,1.2,311.8,0.00,14.8,22.2,"20:09:28",1
"18/10/08","20:20",0.0,18.4,79.1,1009.7,318.3,0.3,0.9,336.7,0.00,14.8,22.1,"20:10:32",1
"18/10/08","20:30",0.0,17.5,82.4,1009.7,306.5,0.3,1.1,328.8,0.00,14.5,22.2,"20:28:08",1
"18/10/08","20:40",0.0,17.1,84.4,1010.2,296.1,0.7,1.3,316.3,0.00,14.5,22.1,"20:30:56",1
"18/10/08","20:50",0.0,17.1,86.1,1009.7,302.6,1.2,1.8,312.9,0.00,14.8,22.0,"20:45:52",1
"18/10/08","21:00",0.0,17.0,85.2,1010.0,302.1,1.1,1.6,310.9,0.00,14.5,22.0,"20:51:20",1
"18/10/08","21:10",0.0,16.9,86.6,1010.2,295.3,1.0,1.3,309.6,0.00,14.7,21.7,"21:06:32",1
"18/10/08","21:20",0.0,16.8,86.3,1010.4,306.1,1.0,1.4,300.8,0.00,14.5,21.7,"21:12:32",1
"18/10/08","21:30",0.0,16.6,87.4,1010.2,304.5,1.2,2.1,311.5,0.00,14.5,21.6,"21:27:36",1
"18/10/08","21:40",0.0,16.6,87.6,1010.4,307.5,1.3,1.8,317.9,0.00,14.6,21.5,"21:36:40",1
"18/10/08","21:50",0.0,16.6,87.7,1010.2,304.1,1.2,1.6,297.5,0.00,14.6,21.4,"21:42:40",1
"18/10/08","22:00",0.0,16.5,87.8,1010.2,314.2,1.3,2.1,330.5,0.00,14.5,21.3,"21:56:24",1
"18/10/08","22:10",0.0,16.5,88.3,1010.4,297.6,1.2,2.6,324.1,0.00,14.6,21.2,"22:03:44",1
"18/10/08","22:20",0.0,16.4,87.7,1010.7,306.8,1.0,1.4,329.0,0.00,14.4,21.2,"22:16:56",1
"18/10/08","22:30",0.0,16.2,88.1,1010.7,305.2,1.1,1.7,341.6,0.00,14.3,21.2,"22:29:36",1
"18/10/08","22:40",0.0,16.1,88.6,1010.7,288.9,0.6,1.6,326.2,0.00,14.3,21.0,"22:30:08",1
"18/10/08","22:50",0.0,15.8,89.1,1010.9,240.9,0.3,1.7,326.6,0.00,14.0,21.2,"22:49:20",1
"18/10/08","23:00",0.0,16.1,89.0,1010.7,307.1,1.6,2.8,309.0,0.00,14.3,20.9,"22:58:00",1
"18/10/08","23:10",0.0,16.7,87.8,1010.7,329.7,2.2,4.0,327.3,0.00,14.7,20.9,"23:05:04",1
"18/10/08","23:20",0.0,17.0,85.7,1010.7,341.2,1.8,2.9,0.1,0.00,14.6,21.0,"23:14:24",1
"18/10/08","23:30",0.0,17.2,84.1,1010.7,338.7,2.1,3.3,343.2,0.00,14.5,20.9,"23:24:16",1
"18/10/08","23:40",0.0,17.2,82.0,1010.4,325.6,1.8,3.3,345.2,0.00,14.1,20.6,"23:35:52",1
"18/10/08","23:50",0.0,16.8,83.2,1010.9,320.4,1.5,1.9,320.0,0.00,14.0,20.7,"23:44:08",1
"18/10/08","24:00",0.0,16.5,84.8,1010.7,318.5,1.6,2.8,335.8,0.00,14.0,20.5,"23:55:04",1
